Theta_e
311 309 310 310 309 310 310 312 315 315 317 318 314 315 319 316 315 320 321 319 317 316 316 316 318 319 317 318 324 327 326 323 321 320 320 320 320 320 320 322 321 320 322 321 314 311 312 312 312 313 312 312 312 311 311 311 312 312 313 314 315 315 315 315 318 321 321 321 321 322 322 322 322 323 322 322 322 322 322 322 321 321 319 319 318 318 318
312 310 311 311 309 311 311 311 313 312 313 316 315 316 317 315 317 320 321 319 317 315 314 314 316 317 315 315 318 319 319 320 321 322 322 321 321 319 318 319 320 319 320 317 312 311 311 311 312 312 312 312 311 311 311 311 311 311 311 311 311 311 311 310 312 314 314 314 315 315 315 316 317 318 318 318 318 319 319 320 320 321 320 319 319 319 320
315 311 311 311 310 310 310 311 314 315 315 317 318 318 317 315 316 318 320 320 317 314 314 314 314 315 314 313 314 314 314 315 317 320 323 325 325 322 318 317 316 318 318 314 311 310 311 310 310 311 311 311 311 311 311 310 310 310 309 310 310 310 311 310 310 310 310 310 311 311 312 313 313 314 314 315 316 316 316 317 318 319 320 320 320 320 320
317 312 309 311 311 310 311 314 316 317 316 316 317 317 317 315 314 317 320 318 314 313 315 315 315 315 315 314 313 314 314 313 312 314 316 319 321 319 317 316 315 316 317 315 311 310 310 310 309 308 309 309 309 309 309 308 308 308 308 308 308 308 308 307 307 308 307 308 309 309 310 311 312 312 313 314 315 317 318 319 319 320 320 321 321 321 321
316 312 311 313 312 312 316 317 315 314 315 316 317 316 316 315 314 316 317 314 312 313 314 314 315 315 314 313 313 312 312 311 310 310 311 311 312 314 316 317 316 315 314 311 309 309 309 309 309 308 308 308 309 308 307 307 307 307 307 308 307 308 307 307 307 307 307 307 307 307 308 308 309 309 310 310 310 312 314 316 318 320 320 321 321 321 321
313 313 315 315 313 314 318 316 313 314 315 317 318 315 313 314 314 314 313 312 311 311 310 311 312 313 312 312 311 311 310 310 309 309 309 309 310 313 315 317 317 313 310 309 309 309 308 308 308 308 307 308 309 308 307 307 307 307 307 307 308 308 308 308 307 307 307 307 307 308 308 308 308 308 308 308 308 308 309 310 313 316 317 318 320 321 321
314 315 315 313 312 314 315 312 312 314 315 316 318 315 310 311 312 311 310 310 309 308 308 308 309 310 311 310 308 308 308 309 309 309 309 308 309 312 314 314 314 311 308 309 309 308 308 308 308 307 306 307 308 308 307 307 308 308 307 307 307 308 308 308 308 307 307 307 308 308 308 308 307 307 307 307 308 308 308 309 310 312 314 316 317 318 318
314 313 313 313 311 311 314 313 311 313 314 315 319 316 310 308 309 310 309 308 308 308 307 307 308 310 311 309 307 306 307 308 308 308 309 308 310 313 314 311 311 309 308 309 308 308 308 308 308 307 306 306 307 307 307 307 308 308 307 307 307 307 307 307 307 307 307 307 308 308 308 308 308 307 307 307 307 307 308 308 308 310 312 314 315 316 317
316 313 313 314 311 309 314 314 311 311 312 313 316 315 309 306 307 307 307 307 307 307 306 306 307 309 311 311 309 306 306 307 307 307 307 306 307 311 311 309 309 309 309 309 308 308 308 308 307 306 305 305 305 305 306 306 307 307 307 307 307 307 307 307 307 307 307 307 308 308 308 308 308 307 307 307 307 307 307 307 308 308 310 312 313 314 316
316 314 312 312 310 310 313 312 309 310 310 311 312 312 309 306 306 306 306 306 306 306 306 306 307 309 311 312 309 306 305 307 307 306 305 304 304 306 308 307 307 307 307 307 307 307 307 306 305 305 304 304 305 305 306 306 306 307 306 306 307 307 306 307 307 307 306 307 308 308 308 308 308 307 307 307 306 306 306 307 307 307 308 311 313 313 314
314 313 311 310 309 310 311 310 307 308 310 311 312 310 308 306 305 305 305 305 306 306 306 306 307 309 310 309 307 305 304 304 305 305 304 303 304 304 305 305 305 304 304 304 305 305 305 305 305 304 304 304 305 305 306 306 305 306 306 306 307 307 306 307 307 307 306 306 307 307 308 308 308 307 307 307 307 307 307 307 308 307 308 310 313 313 313
311 313 311 310 310 310 310 308 307 306 308 312 313 310 307 305 304 304 304 304 305 306 306 306 307 307 307 306 305 305 304 302 302 303 303 303 303 303 304 304 304 304 303 304 304 304 304 304 305 304 304 304 305 305 305 305 305 305 305 306 306 306 306 306 306 306 306 306 306 306 306 307 307 307 308 308 308 308 308 308 308 309 309 311 312 312 313
310 311 310 308 309 309 308 307 307 305 307 310 309 307 305 304 304 304 303 303 305 305 305 305 305 304 304 303 304 305 304 303 302 302 302 303 303 303 303 303 304 304 304 304 303 303 304 304 304 303 304 304 304 304 304 304 305 305 305 305 305 305 305 306 306 306 306 306 306 306 306 306 307 308 308 309 309 308 308 308 309 310 310 310 311 311 312
310 309 309 309 308 308 308 307 306 305 308 308 306 304 304 304 304 303 302 303 304 304 304 304 303 302 302 302 303 303 303 304 303 301 301 302 302 302 302 302 302 303 303 303 304 303 303 303 303 303 304 303 303 304 304 304 304 305 305 305 305 305 305 306 306 306 306 306 306 305 305 306 307 308 308 308 309 308 308 308 310 310 310 309 309 309 309
309 309 308 308 307 307 308 307 304 304 307 307 305 303 303 303 302 301 301 302 302 302 302 302 302 302 301 301 301 301 301 302 301 300 299 300 301 301 301 301 301 301 302 302 303 303 303 303 303 303 303 303 303 303 303 303 303 303 304 304 305 305 305 305 305 305 305 306 306 305 305 305 306 307 307 308 308 308 308 309 310 309 308 307 306 306 305
308 307 307 309 309 308 306 304 303 302 303 303 301 301 301 300 300 300 300 300 300 300 301 301 301 301 300 300 300 300 300 300 299 298 298 299 299 300 300 300 300 300 300 300 301 301 302 302 302 302 302 302 302 302 302 302 303 303 303 304 304 305 305 305 305 305 305 305 305 305 304 304 305 306 307 308 308 308 309 309 309 308 307 306 304 303 303
303 303 304 307 308 305 303 302 302 301 300 300 299 300 300 300 300 300 300 300 300 300 300 300 300 300 300 300 300 300 300 300 299 298 298 298 299 299 299 299 299 299 299 299 300 300 301 301 301 301 301 302 302 302 302 302 302 303 303 303 303 304 304 304 304 304 304 304 304 304 304 304 305 306 307 308 309 309 309 310 309 307 305 305 304 303 302
303 302 301 301 300 300 300 300 300 299 299 299 299 300 300 300 301 300 300 300 300 300 300 300 299 299 300 300 300 300 300 300 299 298 298 299 299 299 299 299 299 299 300 299 299 300 300 301 301 301 301 302 302 302 302 302 302 302 302 303 303 303 303 304 303 304 304 304 304 305 304 304 305 306 307 308 309 310 310 310 309 307 305 304 303 302 300
305 304 300 298 299 299 299 299 298 299 299 299 300 300 300 300 301 301 300 300 301 300 300 300 300 300 300 300 300 300 300 300 299 298 299 299 299 299 299 299 299 300 299 299 299 299 300 300 300 300 300 301 301 301 301 302 302 302 302 302 302 303 303 304 304 304 305 304 304 305 304 305 306 307 308 308 308 309 309 309 308 307 305 304 303 301 299
302 301 298 298 299 299 298 298 299 299 299 299 299 300 300 300 300 300 299 300 301 301 301 301 301 300 300 300 300 300 300 300 299 298 298 299 299 299 299 299 299 299 300 299 300 300 300 300 300 300 300 300 301 301 301 301 301 302 302 302 302 302 302 303 303 304 304 304 304 304 305 306 307 308 308 308 308 308 309 309 308 307 305 305 303 301 299
301 300 299 299 300 300 299 299 299 299 299 299 299 300 300 300 300 300 299 299 299 300 300 300 300 300 299 300 300 300 300 299 298 298 298 298 298 298 299 299 299 299 300 300 300 300 300 300 300 300 300 301 301 301 301 301 301 302 302 302 302 302 302 302 303 303 303 303 303 304 305 306 307 307 308 308 308 308 308 308 308 307 307 306 304 301 299
302 300 299 299 300 300 300 299 300 300 299 299 299 299 300 299 299 299 299 298 298 298 298 298 298 299 298 298 298 298 298 298 297 298 298 298 298 299 299 299 299 299 299 300 300 300 300 300 300 300 300 301 301 301 301 301 301 301 302 302 302 302 302 302 303 303 303 302 303 304 305 305 305 305 306 307 307 307 307 307 307 307 307 306 304 301 299
302 300 300 300 300 300 300 300 300 300 300 299 299 299 298 299 298 298 298 298 298 298 297 297 297 298 298 298 298 298 298 298 298 298 298 298 298 298 298 299 299 299 299 299 299 299 299 299 299 299 300 300 300 301 301 301 301 301 302 302 302 302 302 302 302 303 303 303 303 304 305 305 304 304 304 305 305 306 306 306 306 306 306 304 302 301 300
301 300 300 300 299 299 300 300 300 300 299 299 299 299 298 298 297 296 297 298 298 298 298 297 297 297 297 297 297 297 297 297 297 297 296 295 296 296 297 298 298 298 298 298 298 298 298 298 298 298 299 299 299 299 300 300 301 301 301 302 302 302 302 302 303 303 303 303 304 305 304 304 304 304 303 302 300 300 301 302 303 304 303 301 300 300 300
300 299 299 299 299 299 299 299 299 298 298 298 298 298 298 297 296 296 296 297 297 296 296 295 295 295 294 294 294 294 294 294 294 294 293 294 294 295 295 296 296 297 297 297 297 297 298 298 298 298 297 298 298 298 298 298 299 299 300 300 301 302 302 302 303 303 303 304 304 304 304 303 303 303 302 300 296 294 295 297 298 299 299 299 298 298 297
300 299 299 299 299 299 299 298 298 298 298 297 297 296 296 296 296 296 295 295 294 294 293 293 293 292 292 292 292 292 292 292 292 292 292 292 293 293 293 294 294 294 295 295 295 296 296 296 296 296 296 297 297 297 297 297 297 298 298 298 299 300 301 302 303 303 303 304 304 304 303 303 302 302 301 299 297 294 293 293 293 293 293 294 294 294 293
300 299 299 299 299 299 298 298 298 298 296 295 295 295 295 295 295 295 294 293 293 293 292 292 292 291 291 291 291 291 291 291 291 291 291 291 291 291 291 292 292 292 293 293 293 294 294 295 295 295 295 295 296 296 296 296 297 297 298 298 299 300 300 301 302 303 304 305 304 303 302 301 300 300 298 297 296 294 292 291 290 290 290 290 291 292 292
299 299 299 298 298 298 297 297 297 296 295 295 295 295 294 294 294 293 292 292 292 292 292 291 291 291 291 291 290 290 290 290 290 290 290 290 290 290 290 291 291 291 292 292 293 293 294 294 294 295 295 296 296 296 297 297 297 297 298 298 299 300 300 301 301 303 304 304 304 302 300 298 297 296 295 294 293 292 291 290 290 290 290 290 291 292 293
299 299 299 298 297 297 296 296 295 294 294 294 294 294 293 293 292 292 291 291 291 291 291 291 291 291 290 290 290 290 290 290 290 290 290 290 290 290 290 291 291 292 292 292 293 293 294 295 296 296 296 296 296 296 297 297 298 298 298 298 298 299 299 301 302 303 303 303 302 300 298 296 295 294 293 292 291 291 290 290 290 290 290 290 291 292 293
299 299 299 298 297 296 296 295 295 294 294 294 294 293 293 292 292 291 291 292 291 291 291 291 291 290 290 290 290 290 290 290 290 290 290 290 290 290 290 291 291 292 292 292 293 293 294 295 296 296 296 296 296 296 296 296 297 298 298 299 299 299 299 301 302 302 301 300 299 297 296 295 294 293 292 291 291 291 291 291 291 291 291 291 291 292 293
299 299 298 298 297 296 296 295 294 293 293 293 293 293 293 293 292 292 292 292 291 291 291 291 290 290 290 290 290 289 289 289 289 289 290 290 291 291 290 291 291 291 291 291 292 293 294 295 295 296 296 297 296 295 295 296 296 297 298 299 300 300 300 301 302 302 300 298 297 295 294 293 293 292 292 292 292 292 292 292 292 291 291 291 292 292 293
298 298 298 297 296 296 295 295 294 293 293 293 293 293 293 293 293 292 292 292 291 291 291 290 290 290 290 290 289 289 289 289 289 289 289 290 290 290 290 290 290 290 290 291 291 292 293 294 295 295 296 296 295 294 295 297 297 297 298 299 300 301 301 301 301 300 298 296 295 294 294 293 293 293 293 293 293 293 293 293 293 293 293 293 293 293 294
297 297 297 296 295 295 295 295 294 294 293 293 293 293 293 293 293 293 292 292 292 291 291 290 290 290 290 289 289 289 289 289 289 289 289 289 289 290 290 290 290 290 290 291 292 292 293 293 294 296 296 296 294 293 294 296 297 298 298 299 299 298 298 298 297 296 295 294 294 294 294 294 294 294 295 295 295 295 295 295 294 294 294 294 293 293 293
297 297 296 295 295 295 295 295 294 294 294 294 293 293 293 293 293 293 293 292 292 291 291 290 290 290 290 290 289 289 289 289 289 289 289 289 289 289 289 289 290 290 291 292 292 292 293 294 295 296 296 296 295 294 293 294 295 296 296 296 296 295 295 295 295 294 294 294 294 294 294 295 295 295 296 296 295 295 295 295 294 294 294 294 294 294 294
296 296 296 295 295 295 295 295 295 295 295 295 294 293 293 293 293 293 293 292 291 291 291 291 291 291 290 290 289 289 289 289 289 289 289 288 288 288 288 289 290 290 291 292 292 292 293 294 295 296 296 296 296 295 294 294 294 294 294 294 294 294 294 294 294 294 294 295 295 295 295 295 296 296 296 296 295 295 295 295 295 295 295 294 294 294 293
296 296 295 295 295 295 295 295 295 295 295 295 294 293 293 293 293 293 292 291 291 291 292 292 291 291 290 290 289 289 289 289 289 289 288 288 288 288 288 288 289 289 289 290 291 292 292 294 295 296 296 296 296 296 296 295 295 295 295 295 295 295 294 294 294 294 295 295 295 295 295 296 296 296 296 296 296 295 296 296 296 295 295 294 294 293 293
296 296 295 295 295 295 295 295 295 295 295 295 294 294 294 293 293 293 291 290 290 291 291 291 292 291 291 290 290 289 289 289 289 289 288 288 288 288 288 288 288 288 288 289 290 291 292 293 294 296 296 296 296 296 296 296 296 296 296 296 296 296 295 295 295 295 295 295 295 296 296 296 296 296 296 296 296 296 296 296 295 295 295 294 294 294 294
296 296 295 295 295 295 295 295 294 294 294 294 293 293 293 292 292 292 291 290 290 290 290 290 291 291 291 291 290 289 289 288 289 289 289 288 288 288 288 288 288 288 288 288 289 290 292 293 294 295 295 296 296 296 296 296 296 296 296 296 296 295 295 295 295 295 295 295 295 296 296 296 296 296 296 296 296 295 296 295 295 295 294 294 294 294 294
295 295 295 295 295 295 295 295 294 294 293 293 292 292 292 291 291 291 291 290 290 289 289 289 290 290 290 291 290 289 288 288 288 288 289 288 288 288 288 288 288 288 288 289 290 291 291 292 293 294 294 295 295 296 296 296 296 296 295 296 296 295 295 295 295 295 295 295 295 295 295 295 295 295 295 295 295 295 295 295 294 294 294 294 293 293 293
295 295 295 295 294 295 295 294 294 293 293 292 292 292 292 291 291 291 291 291 290 290 289 289 289 289 289 289 290 289 288 287 287 287 287 288 288 288 288 287 288 288 289 289 290 290 291 292 292 293 293 294 294 295 295 295 296 296 295 295 295 295 295 295 295 295 295 295 294 294 294 294 294 294 294 294 294 294 293 293 293 293 293 293 292 292 291
295 295 295 294 294 294 295 294 294 293 293 292 292 291 291 291 291 290 290 290 290 290 290 289 289 289 289 289 289 289 288 287 286 286 286 286 287 287 287 287 287 288 288 289 289 290 291 291 292 292 292 293 293 294 294 295 295 295 295 295 295 295 294 294 294 294 294 294 293 293 293 293 293 292 292 292 292 292 292 292 291 291 291 291 291 291 290
295 295 295 295 294 294 295 294 294 293 292 292 292 292 291 291 291 290 290 290 290 290 290 290 289 288 288 288 288 288 288 287 286 286 286 286 286 286 286 286 287 287 288 288 289 289 290 290 291 291 291 292 292 293 293 294 294 294 294 294 293 294 293 293 293 293 293 292 292 292 292 291 291 291 291 290 290 290 290 290 289 289 289 289 289 289 289
296 295 295 295 295 295 295 294 294 293 292 292 292 292 291 291 291 291 290 290 290 290 290 290 290 289 288 288 288 287 287 287 286 286 286 286 286 286 286 286 287 287 287 288 288 289 290 290 290 290 290 291 291 291 292 292 292 292 292 292 292 292 292 292 292 291 291 291 290 290 290 290 289 289 289 289 288 288 288 288 288 288 287 287 287 287 287
297 296 296 296 296 296 295 295 294 293 292 292 292 292 292 291 291 291 290 290 289 289 290 289 290 289 289 288 288 287 286 286 286 286 286 286 286 286 286 286 286 287 287 287 288 288 289 289 290 290 290 290 290 290 290 290 290 291 290 290 290 290 290 290 290 290 289 289 289 289 288 288 288 288 288 287 287 287 287 287 286 286 286 286 286 286 286
297 297 296 296 296 296 295 295 294 293 292 292 291 291 291 292 291 291 291 290 289 289 289 289 289 289 289 288 288 288 287 286 286 285 285 286 286 286 286 286 286 286 287 287 287 288 288 289 289 289 289 289 289 289 289 289 289 289 289 289 289 289 289 289 289 289 288 288 288 287 287 287 287 287 287 287 286 286 286 286 285 285 285 285 285 285 284
297 297 297 296 296 296 296 296 294 292 292 292 291 290 291 292 291 291 290 290 289 289 289 288 288 289 289 288 288 287 287 287 286 286 285 286 286 286 286 286 286 286 286 286 287 287 287 288 288 288 288 288 288 288 288 288 288 288 288 288 288 288 288 288 288 288 288 287 287 287 287 286 286 286 286 286 286 286 285 285 285 285 284 284 284 284 283
297 297 296 297 297 296 296 296 295 293 292 292 291 291 291 292 292 291 290 290 289 289 288 288 288 288 288 288 288 287 287 287 286 286 285 286 286 286 286 286 286 286 285 285 286 286 286 287 287 287 287 287 287 287 287 287 288 288 288 288 287 287 287 287 287 287 287 287 287 286 286 286 286 285 285 285 285 285 285 285 285 284 284 283 283 283 283
297 297 297 297 297 297 297 297 296 293 292 292 292 291 291 291 292 291 291 291 290 289 288 288 288 288 288 287 287 287 287 286 286 286 285 285 286 286 286 287 287 286 285 285 285 285 285 286 286 286 286 286 286 286 286 286 286 287 287 287 287 287 286 287 287 286 286 286 286 286 286 286 286 285 285 285 284 284 284 285 284 284 284 283 283 283 282
297 297 297 297 297 297 297 297 296 295 293 292 292 292 291 291 291 291 291 291 290 289 289 288 288 287 287 287 287 286 286 285 285 285 285 285 285 286 286 286 286 286 285 285 285 285 285 285 285 285 285 285 285 285 285 285 285 285 285 285 286 286 286 286 286 286 286 286 286 286 286 286 285 285 285 284 284 283 283 283 283 283 283 283 282 282 282
296 297 297 297 297 297 297 297 297 296 294 293 293 292 291 291 291 291 291 291 291 290 290 289 288 287 287 287 287 287 286 286 286 286 285 285 285 286 286 286 286 286 286 285 285 285 285 285 285 285 285 285 285 285 285 285 285 285 285 285 285 285 285 285 285 285 285 285 285 285 285 285 284 284 284 283 283 283 282 282 282 282 282 282 282 281 281
296 296 297 297 297 297 297 297 297 295 294 293 293 292 291 291 292 292 291 291 291 290 289 289 288 288 287 287 287 287 287 287 286 286 286 285 285 286 286 286 286 286 286 285 285 284 284 284 284 284 284 284 284 284 284 284 284 284 284 284 284 284 284 284 284 285 285 285 285 284 284 284 283 283 283 283 283 282 282 281 281 281 282 281 281 281 281
295 296 296 296 297 297 297 296 296 295 294 294 293 292 291 291 291 291 291 290 290 290 289 288 288 287 287 287 287 287 286 286 286 286 286 285 285 285 285 285 285 285 285 285 285 284 284 284 284 284 284 284 284 284 284 284 284 284 284 284 284 284 284 284 284 284 284 284 284 284 283 283 282 282 282 282 282 281 281 279 279 280 281 281 280 280 281
Wind_Speed
5 5 7 8 7 6 6 5 5 6 6 6 4 4 5 2 1 5 4 3 1 3 1 2 4 5 5 5 5 6 7 6 4 3 5 6 6 7 7 6 6 7 6 6 8 11 13 15 15 15 15 14 12 10 8 9 10 10 9 10 11 11 10 10 11 10 9 9 9 8 7 6 6 6 7 8 10 12 15 17 19 20 20 20 21 23 25
4 5 7 8 7 7 7 6 6 6 6 5 4 4 4 2 2 6 4 4 2 2 4 4 4 5 6 8 6 3 3 3 4 4 4 2 1 1 4 8 8 7 6 6 9 11 12 13 14 13 14 15 13 11 9 9 9 8 8 9 9 10 10 9 10 10 9 8 8 7 7 7 7 8 8 9 10 12 13 14 14 16 18 19 19 21 24
4 5 6 8 7 7 7 7 7 6 6 7 5 3 5 4 2 2 6 8 5 4 4 5 6 7 8 10 9 8 7 5 3 1 3 4 2 3 5 4 8 8 7 7 8 11 12 10 9 9 10 13 13 11 11 10 9 8 8 7 7 8 8 7 7 6 5 5 6 5 3 4 5 7 9 10 11 11 12 12 13 14 17 18 19 19 21
3 4 4 6 6 8 8 7 6 5 5 4 3 2 3 3 4 7 9 8 4 6 5 6 7 8 9 9 8 7 7 8 9 8 4 1 2 9 9 6 8 9 8 8 9 11 10 7 7 8 7 8 13 11 8 7 8 7 6 6 6 6 6 6 5 4 3 4 4 3 2 3 3 4 5 6 8 9 11 12 13 14 16 17 17 17 17
3 3 3 6 7 7 6 4 5 5 3 3 5 4 5 6 6 5 4 2 3 5 6 7 7 8 8 7 7 7 7 8 10 10 8 9 6 3 5 5 7 7 7 11 14 15 13 9 9 11 13 9 9 8 5 4 4 3 5 6 5 5 5 4 4 3 2 3 2 1 1 2 2 1 0 1 3 4 6 7 9 10 11 13 14 14 13
2 1 5 7 5 2 4 2 7 7 3 5 6 4 7 8 6 4 4 3 5 8 8 8 7 6 6 6 7 7 7 7 8 9 9 9 11 9 5 5 6 7 8 12 17 17 14 12 9 9 9 6 5 4 2 1 1 2 3 5 6 5 4 3 2 3 3 2 2 2 3 3 2 1 2 3 5 6 6 6 6 6 7 9 11 12 11
1 2 7 5 3 4 2 5 9 8 6 6 7 7 10 10 8 8 8 8 8 9 9 8 7 6 5 8 11 10 8 6 6 7 8 9 11 10 7 6 7 9 10 12 16 16 13 11 8 8 9 5 1 0 2 4 5 4 3 3 5 6 5 4 2 2 3 3 2 2 1 1 1 1 2 3 5 6 7 7 7 7 8 9 9 11 13
2 2 3 2 4 3 4 8 8 7 7 7 5 7 10 11 8 8 8 7 7 8 8 8 7 6 5 7 10 11 10 9 8 7 7 8 9 8 7 8 8 9 10 10 11 10 8 5 3 6 9 7 4 5 5 3 3 4 6 7 6 4 5 5 4 4 5 4 4 3 2 2 2 2 3 4 4 6 7 8 8 9 10 10 10 9 11
3 4 3 2 2 5 6 5 5 5 5 4 2 4 6 9 9 7 6 7 8 8 8 8 7 7 6 6 7 9 10 9 9 8 8 9 9 7 8 6 4 4 5 5 6 6 5 4 2 4 6 8 8 9 8 6 7 7 8 9 7 6 6 7 7 7 6 5 4 4 4 4 4 3 4 4 5 7 8 9 10 11 11 11 12 10 9
3 4 1 1 1 2 2 1 4 5 4 4 3 3 4 7 9 8 7 7 8 8 8 9 8 6 6 6 5 8 9 9 9 9 10 12 13 9 7 6 3 6 4 3 6 7 5 3 4 6 6 7 9 8 7 8 10 11 11 10 9 8 7 7 7 6 5 4 5 6 6 5 5 5 6 6 7 8 9 11 12 13 13 12 12 12 11
3 4 2 1 2 2 2 4 6 7 6 6 5 3 3 6 8 8 8 7 7 7 7 8 7 5 6 4 5 6 8 9 9 10 11 14 16 15 10 7 7 10 12 8 3 3 3 1 4 5 6 8 9 8 9 10 12 13 13 13 11 8 6 5 5 4 4 4 5 5 6 7 8 9 9 9 8 8 9 11 13 14 15 14 12 12 12
2 3 3 1 1 1 3 6 7 8 7 6 6 2 1 6 7 6 7 7 6 6 6 7 6 4 2 3 5 5 7 9 10 10 11 12 15 17 16 13 11 12 13 11 8 5 4 5 6 7 9 11 11 10 10 11 12 14 14 15 14 12 10 9 8 8 8 8 8 9 11 13 13 13 12 10 9 9 10 11 13 15 15 13 11 11 11
1 2 2 1 1 1 4 7 7 8 7 6 5 1 2 4 6 6 7 7 6 5 5 5 3 2 1 3 5 5 7 8 10 12 13 13 15 18 19 18 18 17 16 12 9 9 9 10 10 10 12 13 13 13 12 13 14 15 16 17 17 16 15 13 11 11 10 11 11 12 13 14 15 14 13 11 10 9 9 11 14 14 10 8 9 10 10
2 2 2 2 1 1 4 6 6 6 4 2 1 2 3 4 5 6 6 6 6 5 5 4 4 4 6 6 7 7 7 7 7 10 14 15 15 16 18 20 20 19 18 17 17 15 14 14 14 14 14 15 15 16 17 17 17 17 17 17 17 17 16 15 14 13 13 13 14 14 13 12 13 13 13 12 11 10 10 12 12 9 7 9 9 10 11
2 2 3 3 2 3 4 3 5 5 2 2 3 2 3 3 5 7 6 5 5 6 6 6 6 6 7 8 8 8 8 8 8 11 13 13 13 16 18 19 20 20 18 18 18 18 15 14 15 14 13 14 14 14 15 16 16 16 17 17 17 17 17 15 14 14 14 14 13 13 12 12 14 15 15 15 13 11 9 10 9 6 9 10 10 11 12
2 3 2 1 2 3 2 2 0 1 1 1 2 3 3 4 6 6 5 5 6 6 5 6 6 6 6 7 7 8 8 9 10 13 14 13 13 16 18 20 23 24 21 20 21 21 19 17 17 17 16 16 15 13 14 15 15 16 17 16 16 16 16 16 15 16 16 17 16 16 17 18 18 18 17 16 14 11 9 9 8 10 11 11 12 12 13
2 2 2 3 3 2 1 3 2 2 6 7 6 5 4 4 4 4 4 6 7 7 6 6 6 5 6 7 7 7 8 8 9 12 15 16 16 16 17 20 24 25 23 22 22 24 24 22 20 20 18 16 14 12 12 12 12 13 15 16 16 16 16 16 17 18 19 21 21 20 20 20 21 20 19 17 15 13 12 11 10 12 13 13 13 14 15
2 1 1 5 5 4 5 5 5 8 9 7 6 6 5 4 4 4 4 5 6 6 7 6 5 5 6 7 7 7 7 8 10 12 15 17 18 18 18 19 21 23 23 23 22 21 20 18 17 16 14 12 10 10 10 10 11 13 14 15 15 15 16 17 20 21 20 19 18 18 18 20 21 18 17 16 15 14 13 12 12 14 15 15 15 15 16
2 1 5 9 8 6 7 8 8 9 8 6 6 5 4 4 5 5 5 5 5 6 6 6 6 6 6 7 7 7 7 7 9 11 14 16 17 18 18 18 20 22 22 22 21 19 18 18 17 16 15 14 13 14 14 14 15 16 17 17 18 17 16 16 17 18 17 15 15 17 17 16 13 9 9 10 11 11 11 13 14 15 16 16 15 16 18
1 1 7 9 6 5 8 8 7 7 8 7 6 5 4 5 5 5 5 5 5 4 5 5 6 6 7 7 7 7 6 7 8 10 14 16 17 18 18 20 21 20 19 20 19 18 18 18 18 17 17 17 17 17 17 17 17 18 19 20 20 20 20 19 18 17 16 16 17 17 12 9 8 9 8 7 7 8 10 13 15 17 17 17 17 18 20
2 3 8 10 7 6 8 9 7 7 7 7 7 7 6 6 6 6 7 7 6 6 6 6 6 7 7 7 7 7 7 6 8 11 14 16 17 18 18 19 19 18 18 19 19 18 18 19 19 18 17 17 17 17 17 17 18 19 20 21 20 20 20 21 22 21 20 20 20 16 12 13 11 10 10 9 8 9 10 12 13 14 15 17 18 20 21
3 3 5 5 4 3 5 7 8 8 8 7 8 8 8 8 8 7 8 9 10 10 10 9 8 7 8 8 8 8 7 7 10 13 15 16 16 16 16 16 17 18 19 20 20 19 20 20 19 18 17 17 17 17 17 18 19 20 22 23 24 22 20 20 22 22 21 22 19 16 16 14 11 11 10 9 9 9 9 9 10 11 13 16 18 20 21
2 3 3 4 2 2 4 6 7 7 6 7 8 8 8 8 8 8 8 8 9 10 12 14 13 9 8 10 10 8 8 11 13 13 13 14 15 16 16 17 16 18 20 21 21 19 17 16 16 17 17 18 17 16 16 16 17 19 21 22 22 22 20 19 20 20 18 15 13 15 16 15 14 13 12 10 8 7 6 6 8 11 14 16 19 21 22
2 3 4 4 3 3 4 5 6 6 7 7 6 7 7 7 9 10 9 7 7 7 8 12 15 13 12 13 12 9 9 13 15 15 15 17 17 18 18 18 18 18 18 18 18 17 17 17 18 19 20 21 20 19 17 16 17 18 19 20 21 22 21 20 20 19 17 12 13 17 16 16 16 16 16 15 13 10 8 7 8 11 15 17 20 21 21
2 3 4 4 4 5 5 4 5 7 9 8 5 6 7 8 11 12 10 7 9 10 9 10 15 17 17 16 15 13 13 14 16 17 18 19 18 18 18 18 18 18 17 17 18 19 19 20 20 20 22 23 24 23 22 22 21 21 21 20 19 19 19 19 20 19 16 13 16 19 19 19 20 19 20 21 22 21 20 18 17 17 17 19 21 21 20
4 4 5 5 4 4 5 5 5 6 9 10 7 7 10 11 11 12 11 11 14 15 14 13 15 17 17 16 16 17 16 17 19 20 19 18 18 17 18 19 20 20 20 20 21 21 20 20 20 21 23 25 26 26 26 26 26 26 27 26 25 22 19 18 18 18 15 14 18 21 21 22 23 23 23 25 28 29 27 25 24 24 23 23 23 22 21
5 5 5 4 4 5 5 5 5 5 9 11 9 8 11 12 11 11 13 15 15 15 14 15 16 16 16 16 16 17 17 17 18 18 17 17 18 18 19 21 21 22 22 22 21 21 21 21 21 22 24 26 27 27 27 27 27 27 27 27 26 24 21 19 18 17 16 18 20 22 23 24 25 26 27 29 30 30 29 28 27 26 25 25 25 23 21
5 5 4 3 3 4 4 5 7 9 11 11 10 9 10 11 11 11 11 11 13 13 13 15 15 15 15 14 14 15 16 16 16 16 16 17 18 18 19 21 21 20 19 19 19 19 20 20 22 23 25 27 27 27 27 28 28 29 28 27 24 21 20 19 19 17 19 21 23 24 25 25 26 27 28 28 28 28 28 29 29 27 25 24 24 23 22
4 4 3 4 4 5 5 6 7 8 8 9 9 10 10 9 8 8 8 8 9 10 12 14 15 14 14 14 14 14 14 14 15 16 17 17 17 17 18 18 17 16 15 14 14 14 14 14 15 17 19 20 20 21 22 23 25 26 27 28 26 24 21 19 16 17 21 24 24 25 25 26 27 28 27 27 27 28 28 29 29 27 25 24 23 22 20
4 4 2 4 5 5 5 5 5 6 7 7 7 8 8 7 6 5 6 6 7 8 10 13 14 14 14 15 15 15 14 14 15 15 15 14 13 13 13 12 9 7 6 6 7 8 9 11 12 14 17 18 18 19 20 21 24 24 23 24 25 26 25 20 17 20 23 24 25 26 27 28 29 30 28 27 27 27 28 29 28 27 25 23 22 21 19
4 4 4 6 5 4 5 5 4 4 4 5 5 5 5 5 4 4 4 5 6 8 11 13 13 14 16 17 17 17 16 14 13 13 13 13 13 14 15 15 11 7 7 8 8 11 14 17 18 20 20 18 17 16 15 18 23 24 23 23 23 24 26 24 22 24 26 27 29 30 30 29 28 29 28 27 27 27 28 27 27 25 23 21 19 18 18
4 4 5 5 4 4 4 4 3 3 3 4 4 4 4 4 4 4 4 5 6 8 11 13 14 15 17 19 19 19 17 14 14 16 17 18 17 14 12 12 11 10 12 15 17 19 21 22 23 25 23 18 15 14 10 6 16 21 21 21 21 23 27 28 27 28 30 31 32 32 32 31 28 27 26 26 26 27 26 25 23 22 20 18 17 16 15
2 2 4 4 3 3 3 3 3 3 1 2 3 4 4 4 5 5 5 5 7 8 9 12 15 17 19 20 20 20 19 16 16 19 21 20 17 15 12 9 10 14 20 24 25 26 26 27 27 27 24 21 20 21 22 15 10 15 19 20 22 26 28 30 31 32 31 31 30 32 33 31 29 27 26 25 24 24 22 21 20 18 17 16 15 15 14
2 4 4 2 2 1 1 2 3 2 2 2 3 5 6 6 8 9 7 4 5 7 8 10 14 18 20 20 21 22 21 17 14 16 19 18 16 14 12 10 13 20 25 28 29 29 29 29 29 28 26 24 25 27 30 31 29 28 28 28 28 29 29 30 32 33 32 29 29 31 30 28 27 25 24 22 21 19 18 16 15 15 14 12 12 13 12
4 6 6 5 4 4 4 3 2 1 2 3 4 6 7 7 9 10 5 2 4 6 7 9 12 16 18 21 22 22 21 18 15 16 17 17 15 13 14 18 22 25 28 30 31 30 28 28 29 29 27 26 28 30 33 35 36 36 35 35 34 32 31 31 31 31 31 29 29 29 28 26 25 23 21 19 18 16 15 14 13 13 13 12 12 13 12
6 6 5 5 5 6 6 3 1 3 5 5 5 7 9 11 12 9 2 4 6 7 6 8 11 13 15 17 19 19 19 17 16 17 17 16 15 15 20 26 27 26 26 28 30 28 27 28 30 30 29 28 28 28 29 30 31 32 32 32 31 29 28 27 26 25 25 25 25 25 24 22 20 18 17 16 15 14 15 15 16 16 16 16 15 14 13
7 6 6 6 5 5 4 4 2 5 9 9 9 10 11 11 10 4 3 6 7 7 6 7 9 10 9 10 13 16 17 16 15 16 17 17 18 21 25 28 27 25 24 24 26 26 27 27 29 30 31 30 29 27 26 26 26 26 26 27 27 26 25 24 23 22 21 21 21 21 19 19 19 19 18 17 16 17 19 20 20 19 18 17 16 15 14
6 6 6 5 4 2 3 3 4 8 10 9 7 4 4 7 9 5 7 8 8 9 8 7 7 7 7 6 6 11 16 17 16 15 17 19 22 24 26 25 24 23 22 21 23 25 27 27 29 30 30 30 30 29 29 29 29 29 29 29 29 28 27 26 26 25 25 24 24 23 23 24 24 24 24 23 22 22 22 22 20 19 18 17 16 15 14
6 7 6 4 3 2 3 4 6 8 6 4 7 7 6 7 9 8 7 7 8 11 12 11 8 7 8 8 6 8 13 18 18 17 16 18 20 22 23 24 23 22 22 23 25 26 26 27 29 30 29 29 28 28 27 28 29 29 29 29 28 28 28 28 29 28 28 28 27 27 26 25 25 24 23 23 23 22 22 21 20 19 18 17 16 15 15
7 8 8 6 5 5 8 8 8 7 3 1 3 5 6 6 8 9 9 7 7 9 12 13 12 10 11 12 11 9 12 17 21 19 16 17 19 19 20 23 25 24 24 26 27 27 26 27 28 28 28 28 28 27 27 27 27 27 27 27 27 26 26 25 26 26 26 25 25 25 25 24 23 23 22 21 21 21 21 20 19 17 15 14 13 14 15
8 10 10 9 9 10 12 11 8 5 2 2 2 2 5 6 6 8 9 9 7 8 10 12 13 13 12 13 13 12 12 15 20 21 20 19 19 17 15 19 23 23 22 24 26 26 26 27 27 26 26 26 26 27 27 28 27 27 27 26 26 26 25 24 24 23 23 23 23 22 22 22 22 21 21 20 20 20 20 20 20 18 16 15 13 13 13
9 11 11 11 12 13 12 11 7 6 5 4 3 3 3 5 5 6 7 8 8 8 8 9 11 12 12 13 14 15 14 14 16 20 22 22 20 17 14 17 21 21 20 22 25 25 25 26 26 26 25 25 26 26 27 28 27 27 27 26 25 25 24 24 24 23 22 22 22 21 20 20 20 20 20 20 19 19 18 19 19 18 17 16 15 12 11
10 12 12 12 11 10 10 10 7 7 8 6 4 3 2 2 3 4 5 6 8 8 9 8 8 9 11 12 13 15 15 15 14 16 18 20 21 20 17 17 20 21 21 23 26 26 25 25 26 25 24 24 25 26 26 27 26 26 26 26 25 25 24 23 22 22 21 22 22 21 20 19 19 19 18 18 17 16 16 15 15 15 15 15 15 13 11
11 11 11 11 10 9 10 10 8 8 10 9 5 3 2 3 3 3 4 5 6 7 8 9 9 7 8 11 12 13 14 15 15 14 13 15 18 21 20 19 19 21 22 24 27 28 27 25 24 23 24 24 25 25 26 26 25 25 25 25 25 25 25 24 22 21 21 21 20 20 19 19 18 18 18 17 16 15 14 13 12 10 10 10 11 11 10
11 11 11 10 10 11 12 12 8 8 11 9 7 5 3 4 4 3 3 5 6 6 7 8 9 9 8 9 11 12 13 14 15 16 14 12 12 14 17 18 19 20 21 23 25 26 26 24 22 21 21 22 23 24 25 26 25 24 23 23 23 24 24 24 23 22 21 20 19 18 18 18 18 17 17 17 16 15 14 13 11 9 9 8 8 8 8
14 13 12 12 13 14 14 13 7 8 11 10 10 9 6 5 6 6 4 4 5 6 6 6 8 9 8 8 10 11 13 13 14 15 15 14 11 10 12 14 16 17 19 21 22 24 23 21 20 19 19 19 20 22 23 23 24 24 23 22 22 22 23 23 23 22 21 20 20 19 18 17 17 16 15 15 15 14 14 13 12 11 10 10 9 9 8
14 14 13 14 15 15 14 13 8 8 10 8 9 11 9 7 7 8 6 5 6 6 5 5 6 7 7 7 8 10 12 13 13 12 12 12 12 11 11 11 12 15 16 18 20 21 21 19 19 19 19 18 19 20 20 20 21 22 23 23 22 21 20 19 20 20 20 19 19 18 17 17 16 15 15 14 13 12 12 12 12 12 11 10 9 8 8
15 15 16 16 17 16 14 12 10 9 10 7 8 12 14 10 8 8 8 7 8 9 7 6 6 6 6 6 7 8 9 11 11 9 8 9 11 12 11 11 12 13 14 15 17 18 18 18 18 18 18 18 19 20 20 20 19 19 20 21 21 20 19 17 17 17 17 17 17 16 16 16 16 16 16 15 14 13 13 13 12 12 11 11 10 9 8
16 17 17 17 17 15 13 11 9 9 10 10 10 13 15 12 9 9 10 10 12 12 10 8 8 8 7 6 7 7 7 8 10 10 8 8 11 13 13 13 11 11 13 15 15 15 16 17 17 17 17 18 18 18 18 19 19 19 18 18 18 18 18 17 17 16 16 16 15 15 14 15 16 15 15 15 15 14 13 13 12 11 11 11 11 10 9
15 16 17 17 16 15 14 13 10 9 10 11 12 14 16 13 11 12 13 12 13 14 14 12 11 11 9 7 6 6 6 7 9 10 9 9 10 11 12 12 11 10 11 13 14 13 14 15 16 16 17 17 17 17 17 16 16 17 17 17 16 15 15 15 16 16 15 15 15 14 13 13 14 15 15 14 14 13 13 12 12 11 11 11 10 10 9
13 15 16 17 17 17 17 16 14 12 12 14 14 16 18 14 13 15 14 12 12 15 16 15 13 12 10 9 8 7 7 7 6 7 8 10 10 10 10 10 10 10 10 12 13 13 12 13 14 15 15 15 15 15 15 15 15 14 14 14 15 14 14 13 13 13 12 13 14 14 14 14 15 15 15 14 12 11 11 11 11 11 11 10 10 9 8
13 14 16 19 19 19 18 17 17 17 17 17 16 18 20 14 12 14 15 13 12 14 17 18 16 14 12 11 11 10 8 7 7 7 8 9 10 9 9 9 9 9 9 9 10 10 11 11 12 13 13 13 13 13 13 14 14 14 14 14 14 14 13 12 11 12 12 13 13 13 13 14 15 15 14 12 10 10 10 10 10 10 9 9 10 10 10
Wind_Direction
293 297 304 309 303 297 301 300 307 322 333 344 339 276 248 172 172 238 209 97 25 243 178 114 128 114 75 79 133 157 139 139 173 173 148 154 155 145 133 117 104 93 80 62 64 81 101 110 114 118 121 124 123 116 111 113 113 114 122 128 129 132 137 146 158 163 161 160 167 174 178 184 194 207 214 218 224 229 232 238 245 250 253 255 257 258 256
324 336 329 320 314 308 306 307 316 322 327 344 344 306 316 20 214 219 170 92 33 358 24 35 79 90 70 64 69 69 76 128 172 152 138 138 73 95 159 145 133 119 105 86 71 70 80 94 108 119 125 127 130 132 131 127 126 131 138 142 144 148 148 145 150 158 160 164 170 174 181 188 192 199 207 216 221 225 231 237 244 250 254 256 257 256 254
347 334 316 311 316 321 319 317 329 348 358 2 10 10 10 20 341 343 58 68 38 337 349 34 56 60 59 58 55 46 27 3 8 87 178 162 112 296 267 162 134 133 126 109 89 80 72 68 86 111 129 137 138 142 148 150 151 150 151 154 152 152 152 147 147 154 160 165 168 169 178 189 195 207 218 228 236 238 239 239 243 250 254 254 254 254 255
311 291 307 323 343 359 350 336 350 17 30 26 32 42 46 68 53 27 40 52 6 318 339 25 45 56 61 59 51 40 24 17 30 35 10 13 188 222 223 173 146 150 146 135 112 92 80 71 67 57 65 128 145 143 142 147 145 143 151 164 157 146 151 152 152 161 157 155 167 185 208 200 200 216 228 239 248 252 250 247 248 251 254 253 251 250 253
256 271 355 -0 12 15 342 327 3 359 354 68 65 32 30 63 75 60 65 74 329 339 8 23 36 53 62 62 52 41 35 37 43 46 35 18 359 268 202 152 143 143 134 124 110 93 78 72 66 54 52 76 115 118 105 106 118 145 171 183 179 166 170 177 174 170 158 151 166 173 128 121 113 116 261 307 311 300 284 270 259 253 254 256 251 248 252
249 303 37 24 11 337 267 316 16 360 359 88 94 64 37 46 58 75 98 68 13 18 25 26 34 49 59 60 54 55 63 62 49 42 41 34 24 23 46 76 81 78 88 104 104 96 87 79 68 57 51 55 79 85 77 120 203 233 204 198 203 193 188 196 175 162 168 167 158 129 119 106 77 19 318 320 322 320 319 314 300 280 272 269 258 250 256
191 35 49 36 282 237 190 42 22 7 22 70 98 83 50 42 48 55 56 43 32 37 37 26 22 23 40 56 51 44 46 54 60 51 40 40 41 36 33 45 68 81 85 94 96 88 81 80 68 36 16 3 35 54 277 228 215 232 249 251 233 205 201 218 213 199 208 209 209 189 142 116 36 3 321 309 307 306 307 309 309 302 289 281 272 263 264
143 88 94 162 242 281 40 42 20 10 22 28 51 60 37 27 40 56 59 50 41 42 38 24 9 358 17 56 53 38 29 28 38 42 35 48 63 61 39 24 34 63 73 79 92 91 82 86 79 30 16 8 2 355 336 286 229 240 254 262 257 224 206 215 218 229 235 228 222 217 210 225 238 258 285 295 300 301 298 293 295 298 289 278 278 277 265
136 142 176 206 310 339 3 23 9 11 25 11 34 85 43 14 15 27 44 47 39 36 31 16 0 358 23 47 32 20 23 23 23 25 27 38 54 87 113 98 46 53 82 92 101 109 116 116 78 15 13 2 346 340 333 318 308 296 274 260 257 250 239 233 232 238 239 230 220 219 228 238 239 246 264 280 288 291 293 291 288 291 291 279 271 270 260
131 126 152 302 338 302 292 347 358 3 11 355 5 94 66 2 355 7 28 38 34 32 25 10 360 13 43 39 -0 359 11 10 11 14 15 21 26 44 105 116 37 1 9 91 125 132 134 102 30 8 359 342 332 331 325 312 307 305 300 291 279 267 256 245 237 232 230 233 234 232 234 234 237 248 262 272 280 283 288 292 289 289 293 283 263 254 253
115 115 134 201 195 216 281 338 353 346 337 349 14 71 53 342 336 0 23 27 28 29 19 9 13 38 47 11 329 347 1 1 11 14 2 1 4 4 8 24 26 14 4 1 32 105 121 41 342 332 310 297 296 299 301 298 296 295 294 293 290 286 284 280 266 250 247 257 256 243 236 241 250 260 265 267 268 272 282 290 291 292 294 284 258 241 242
124 144 159 197 152 96 348 340 341 329 328 13 51 81 337 327 322 349 17 12 14 27 20 12 27 58 63 300 294 332 357 358 4 3 353 347 347 346 347 349 352 352 348 345 347 344 318 296 299 297 283 271 262 260 267 273 276 278 279 282 286 289 288 284 276 267 263 264 264 258 256 258 260 258 257 256 258 265 275 283 290 295 294 277 247 225 223
58 148 144 112 104 34 333 321 323 325 338 32 68 180 254 298 310 344 12 356 349 13 25 19 17 12 324 306 315 346 1 355 346 339 335 334 334 334 332 330 330 329 325 320 319 316 309 305 302 294 282 271 261 258 261 261 263 267 269 271 274 275 274 270 265 262 259 258 258 260 259 257 252 248 246 247 251 260 269 280 290 293 280 244 216 199 194
42 70 101 71 29 259 266 289 324 355 12 43 155 220 237 265 301 339 348 330 334 355 14 23 9 342 342 348 348 350 347 336 326 324 324 324 323 323 323 324 323 319 313 307 301 293 291 292 289 283 274 269 267 265 261 257 260 265 266 265 264 265 266 266 264 263 262 262 262 264 266 260 249 241 239 241 247 257 271 283 287 275 225 197 187 176 172
49 59 71 56 0 245 229 273 345 20 70 204 234 252 270 308 349 352 338 334 359 10 12 14 5 355 354 349 343 344 342 333 325 320 317 318 322 324 321 319 317 315 312 308 302 295 289 286 286 288 283 276 273 266 258 258 263 265 265 267 267 267 269 272 273 271 270 268 268 267 270 270 262 252 245 245 249 252 264 275 267 213 182 177 170 162 157
43 43 52 101 227 236 187 112 14 312 11 13 14 15 6 13 17 7 354 354 2 10 14 4 353 349 348 341 340 343 339 333 330 323 318 322 329 331 327 322 319 314 307 300 297 294 291 288 291 297 297 289 280 274 274 278 273 262 259 262 264 267 271 273 276 277 276 275 275 275 274 272 267 258 246 242 241 236 238 248 228 184 172 170 162 154 151
91 128 187 186 195 218 89 109 139 54 34 31 34 39 35 21 10 4 1 350 345 353 2 357 350 345 335 332 336 334 327 324 324 319 317 320 324 325 325 324 322 319 313 307 302 296 289 285 283 286 288 285 277 278 290 298 293 281 274 269 264 264 268 269 272 276 276 273 269 267 267 266 262 255 247 240 228 214 211 216 201 178 170 169 163 157 156
54 116 86 47 34 11 18 42 56 52 44 31 24 26 21 7 355 348 344 338 339 350 354 348 341 334 328 326 322 316 313 312 310 309 310 314 317 319 320 318 319 320 319 318 316 312 307 304 301 301 304 302 298 305 313 315 313 310 301 288 277 270 268 269 270 269 266 265 263 263 268 271 266 255 243 229 210 195 190 190 185 178 172 169 166 162 161
37 25 35 31 11 354 19 34 35 34 31 21 17 15 356 342 336 328 333 341 344 347 347 340 330 321 319 315 307 303 302 299 299 302 302 302 305 308 310 312 315 316 314 311 309 309 310 312 312 314 315 313 312 315 316 313 310 308 305 302 296 285 274 271 270 268 266 267 270 270 269 266 257 232 206 198 191 185 183 181 179 177 172 171 171 167 164
119 84 33 21 356 358 26 29 21 15 8 358 352 347 339 335 328 326 338 345 340 332 323 313 307 303 301 299 293 292 293 291 290 293 295 298 302 303 305 308 310 310 312 312 310 309 309 311 310 306 302 300 300 301 302 303 302 299 298 297 296 291 283 271 264 268 273 275 276 271 249 209 179 165 166 178 191 195 196 194 188 182 179 183 187 181 172
13 23 21 13 5 8 13 11 4 354 344 341 344 346 346 346 344 343 343 338 331 323 313 305 305 307 302 294 290 290 289 288 292 294 293 295 298 299 302 305 305 307 310 310 310 312 315 315 312 306 300 297 296 294 292 293 293 293 293 291 289 291 288 274 263 262 266 269 268 253 208 173 160 157 160 172 186 193 199 204 205 202 200 200 196 185 175
4 354 13 23 19 339 333 346 346 337 339 352 354 349 347 350 352 349 345 341 338 333 329 327 321 310 303 301 298 296 294 293 296 300 303 304 305 307 310 312 314 315 313 307 303 304 308 310 309 305 300 295 292 289 287 286 285 284 284 284 282 281 280 274 265 259 260 263 256 223 188 175 170 159 154 166 181 188 195 204 212 218 219 210 197 183 172
241 306 354 34 54 274 293 324 328 328 354 6 357 353 352 348 352 358 353 345 341 336 334 334 328 314 312 321 318 309 309 312 311 313 320 325 323 321 319 314 309 305 302 299 298 300 305 311 312 310 307 304 299 296 291 286 285 283 279 276 276 276 275 271 263 256 255 254 229 195 183 182 177 163 149 147 158 175 197 211 214 214 211 201 190 182 175
238 323 350 12 10 305 301 320 326 343 11 13 1 358 354 351 2 4 350 334 336 338 335 338 341 341 341 340 335 327 323 325 326 330 333 330 323 316 312 305 297 293 292 294 297 300 305 308 308 307 306 303 300 299 295 289 287 286 283 277 273 271 271 270 265 259 254 233 197 184 182 177 171 162 147 130 117 116 136 159 174 186 187 179 172 173 173
32 9 3 6 350 320 318 340 352 -0 9 13 12 -0 358 6 3 348 331 332 354 357 353 351 353 353 349 344 341 338 333 330 331 331 328 322 316 313 310 306 303 302 302 301 300 299 297 295 295 297 297 295 293 293 290 287 285 284 283 281 277 271 270 269 263 256 247 218 192 188 185 174 167 163 153 139 124 115 118 125 129 136 145 152 155 154 153
60 31 10 -0 342 336 356 5 356 356 8 19 24 5 357 1 352 341 349 11 13 7 4 358 352 348 344 341 338 334 329 324 324 323 320 315 312 310 307 306 307 308 309 309 307 304 300 295 292 290 288 286 286 286 284 282 279 276 273 273 272 271 272 272 265 251 234 209 195 191 185 176 168 163 157 150 141 132 126 122 121 122 126 132 135 135 133
60 33 19 11 350 353 9 -0 347 10 26 27 22 3 357 1 2 5 17 19 12 6 2 353 344 339 337 336 332 326 321 317 316 314 310 306 305 303 300 301 302 304 305 305 304 304 303 300 297 293 287 283 281 280 278 274 271 268 264 262 262 261 261 264 265 250 223 203 193 186 178 172 166 160 154 151 146 142 136 130 126 125 126 127 127 126 125
50 16 26 61 24 352 3 11 15 30 33 22 11 8 10 14 17 21 20 14 7 3 357 351 348 342 337 334 330 323 319 316 312 309 305 302 298 295 295 295 294 294 295 295 297 301 302 299 296 292 287 284 282 278 274 269 263 259 256 253 254 253 251 255 257 240 209 192 186 181 174 167 158 152 148 146 143 140 137 132 130 129 128 127 125 124 125
39 357 16 74 54 17 19 31 33 35 26 11 12 23 25 21 22 24 17 8 3 359 352 349 348 345 340 338 335 328 322 316 310 305 302 299 298 298 299 297 290 285 283 285 293 301 304 304 303 299 296 297 294 285 277 267 257 251 247 245 244 244 245 246 237 208 185 175 174 172 165 156 150 145 143 141 140 138 135 132 130 130 129 129 129 130 133
9 344 21 70 57 35 36 42 42 37 22 8 13 28 29 24 23 20 4 353 352 353 350 346 345 348 349 344 337 332 326 318 315 312 311 313 320 329 337 338 327 310 307 311 315 324 335 344 344 332 323 317 308 296 283 267 254 245 238 233 232 232 231 223 200 178 168 162 160 158 153 149 146 143 140 139 139 137 135 133 133 133 134 137 139 141 143
341 341 50 67 51 40 56 61 51 40 27 11 9 18 23 19 10 355 345 341 343 348 349 348 349 354 354 348 344 343 341 337 337 340 348 3 13 14 17 22 24 20 14 10 9 10 12 10 3 352 344 335 323 313 296 265 248 238 227 222 221 217 209 196 180 170 163 155 150 148 145 141 139 139 139 140 139 138 137 137 137 138 140 144 146 147 148
337 348 48 60 42 36 59 74 69 50 28 9 358 356 2 -0 343 328 327 333 337 345 352 355 357 358 357 355 354 354 355 359 7 12 16 20 19 15 18 25 28 32 35 33 29 25 20 13 7 4 5 2 357 -0 358 278 236 222 212 207 200 188 180 173 165 159 154 149 146 144 141 138 138 139 141 141 140 139 139 140 139 141 145 148 150 151 156
2 16 47 47 38 46 57 82 100 100 42 342 326 323 327 323 310 304 309 325 339 350 359 2 3 3 4 3 3 4 7 13 19 18 15 12 10 9 12 16 25 37 41 40 37 31 24 18 15 15 20 25 30 39 50 65 114 153 160 162 157 151 150 149 146 142 139 138 138 136 135 137 139 141 141 142 142 142 143 144 145 149 155 159 161 163 170
130 130 127 149 170 122 75 78 108 140 199 253 285 301 303 299 299 304 308 326 350 356 359 3 6 10 13 13 11 12 14 18 19 11 5 4 6 8 14 27 40 45 45 43 39 34 29 26 25 27 32 39 44 51 60 69 81 96 107 112 116 118 120 124 127 127 125 126 128 129 130 135 140 143 146 149 150 149 148 149 153 159 163 167 174 179 185
128 128 142 166 157 119 94 70 44 326 245 229 251 278 285 285 293 300 308 6 17 359 354 359 6 14 20 20 18 15 14 14 13 6 5 9 14 16 28 41 44 44 43 40 37 34 32 33 36 40 45 51 55 58 64 70 76 82 89 93 96 99 103 108 112 115 118 121 126 130 136 141 146 151 154 156 156 155 151 149 155 160 161 163 169 174 173
141 138 155 162 139 120 118 116 0 298 269 245 247 264 273 279 285 287 299 65 32 3 352 354 1 13 24 27 24 18 11 9 12 13 15 21 27 34 43 45 40 37 36 33 30 31 36 40 44 49 55 62 66 66 67 69 73 76 81 86 90 94 100 105 109 114 120 127 134 140 145 149 151 152 152 153 157 160 155 149 149 150 148 147 147 144 140
158 167 166 150 138 137 148 155 214 276 277 274 263 253 260 281 294 289 117 82 43 19 5 349 347 360 19 29 31 27 18 11 13 20 25 31 38 44 47 45 38 33 29 23 20 27 37 43 49 55 59 63 67 71 72 74 78 81 83 87 92 97 101 105 110 114 120 128 135 139 138 134 130 127 128 132 142 150 150 147 146 146 143 140 135 128 124
150 139 130 128 133 158 177 186 232 259 273 294 306 286 289 332 353 36 103 97 66 46 30 -0 338 341 356 9 32 38 29 19 16 21 27 34 41 45 46 42 36 30 24 19 22 31 41 48 55 59 61 63 67 72 77 80 83 85 86 88 92 95 96 97 99 100 102 108 114 116 115 113 112 111 112 114 120 129 136 137 137 137 135 130 122 117 116
151 135 142 160 171 201 216 228 251 260 265 331 9 17 18 9 12 33 69 89 81 62 43 27 16 13 15 20 38 53 46 37 30 26 29 34 41 47 47 42 36 32 30 31 35 41 46 53 59 61 62 66 71 75 81 85 85 83 83 84 85 85 86 88 89 90 92 96 100 101 102 103 103 102 103 104 107 113 119 123 123 124 123 118 111 107 108
175 162 174 187 202 233 241 241 248 254 242 100 34 17 13 14 23 35 41 49 66 65 51 41 36 31 27 29 34 45 55 51 42 36 36 39 41 45 43 35 31 32 36 38 41 45 50 56 62 63 64 69 74 77 80 85 87 85 84 85 84 82 82 84 86 88 89 92 95 95 96 97 97 97 99 100 100 102 104 107 108 110 113 113 110 107 109
192 169 176 193 209 229 246 248 236 218 168 116 97 50 24 19 33 46 40 29 38 57 58 52 46 40 36 37 38 41 53 58 51 45 44 42 39 38 35 27 26 31 37 39 42 48 52 55 60 63 65 70 76 79 81 83 84 83 83 84 85 86 87 86 87 89 90 90 92 94 95 96 96 95 95 96 96 96 97 98 98 99 103 107 108 108 110
192 175 190 212 216 223 243 251 225 174 145 123 110 93 53 22 29 54 52 34 32 46 58 59 57 53 49 48 47 44 46 55 57 54 50 47 43 39 33 27 29 35 41 42 44 50 56 58 59 63 66 70 75 80 83 85 84 83 84 85 84 85 87 88 88 89 92 93 94 95 97 97 95 93 93 93 93 93 94 95 94 94 96 99 102 104 108
194 186 202 223 224 224 244 258 234 174 151 136 115 107 101 57 38 54 62 48 37 41 47 49 53 61 63 60 56 51 47 50 58 60 56 53 51 49 44 39 39 43 47 48 47 50 56 61 62 63 66 71 75 78 81 83 83 84 85 86 86 86 87 87 87 88 90 91 92 93 94 93 92 91 91 90 88 89 90 91 90 90 91 92 94 96 100
205 203 213 228 232 233 247 256 234 179 149 132 122 131 145 125 92 68 72 69 54 47 47 41 36 51 74 77 71 65 60 57 59 63 61 55 51 50 49 50 50 49 50 52 52 52 55 61 64 65 67 70 73 76 77 78 79 81 82 83 85 85 85 85 86 88 89 90 90 91 92 92 90 89 88 86 84 83 82 80 80 83 86 87 89 89 90
204 213 221 233 240 242 252 259 236 174 148 142 151 165 166 149 138 120 95 88 75 61 55 48 39 44 72 90 87 81 75 66 61 62 62 57 49 45 47 51 53 52 52 55 55 54 55 58 61 65 69 71 73 76 77 76 76 78 79 80 82 83 82 82 83 85 86 87 87 88 89 91 89 87 87 85 83 83 80 76 75 74 73 76 80 77 76
196 208 218 233 242 242 252 263 244 171 157 165 170 167 169 171 155 135 115 109 104 86 69 62 53 51 67 93 98 91 84 75 64 60 61 63 61 52 47 50 53 53 53 56 57 55 55 58 59 60 64 69 72 75 78 79 80 80 80 80 81 83 82 82 83 84 85 87 87 87 89 89 87 87 87 85 84 83 80 77 76 76 74 74 76 73 70
188 197 210 230 242 242 249 263 248 183 170 185 182 168 167 173 161 146 139 143 138 121 97 84 77 67 67 82 96 100 98 92 81 68 61 63 66 59 49 50 56 54 52 56 58 56 55 60 63 62 63 67 70 72 74 76 79 82 84 84 84 83 83 82 83 84 85 86 86 86 85 84 83 83 82 82 84 87 85 80 76 74 72 73 75 75 73
188 194 204 221 236 239 244 259 252 206 189 204 195 170 165 169 170 165 167 170 163 152 137 119 110 98 81 75 87 100 106 104 98 86 68 64 71 70 62 60 63 57 49 52 59 61 59 62 66 67 67 69 72 73 74 73 73 76 81 84 85 84 83 83 83 83 83 84 85 85 84 85 85 84 80 76 76 81 84 83 79 72 66 64 66 67 66
196 199 201 212 228 235 238 250 253 222 204 211 203 177 167 167 175 181 188 190 179 168 161 152 141 131 116 99 95 97 97 98 102 103 97 85 80 78 72 68 64 55 48 50 59 64 65 65 68 70 71 71 72 74 77 78 76 75 77 81 84 85 84 86 89 88 85 86 86 86 85 87 87 84 79 75 72 70 70 73 78 78 73 68 64 60 57
207 202 197 201 215 226 230 241 253 245 230 228 214 184 168 170 185 197 204 203 189 174 169 165 157 146 135 125 115 111 108 104 100 100 101 98 90 82 77 72 65 55 49 50 55 60 67 72 73 71 71 72 73 73 74 76 80 82 83 84 85 83 83 88 92 92 90 88 86 85 87 90 89 84 79 77 76 71 65 63 69 76 79 73 65 59 56
217 205 196 198 209 219 227 236 239 235 237 241 223 187 172 182 204 208 203 195 179 165 160 156 153 150 147 141 134 129 131 133 125 110 102 100 97 91 85 80 74 69 64 58 53 52 61 72 78 77 74 72 73 75 75 74 74 77 83 87 89 87 85 87 92 95 96 93 89 86 87 89 88 83 80 79 78 71 62 59 63 71 76 74 68 64 66
235 219 207 204 208 216 224 229 226 222 232 242 224 189 177 189 207 197 184 183 184 174 163 156 154 158 161 156 150 146 145 145 147 142 127 115 111 112 109 100 91 86 82 75 63 55 56 64 74 81 81 76 73 75 79 80 79 78 80 84 86 85 83 84 89 94 95 93 90 89 90 89 85 81 78 75 72 67 62 61 64 69 74 75 74 71 72